Weather History for Lewisburg, WV

Change the Weather History Date:

Wednesday, September 5, 2012

  Actual Average Record
Temperature  
Mean Temperature 78 °F 66 °F  
Max Temperature 86 °F 78 °F 90 °F (2007)
Min Temperature 69 °F 53 °F 36 °F (1997)
Degree Days  
Heating Degree Days 0    
Month to date heating degree days  
Since 1 July heating degree days  
Cooling Degree Days 12    
Month to date cooling degree days  
Year to date cooling degree days  
Growing Degree Days 28 (Base 50)    
Moisture  
Dew Point 68 °F    
Average Humidity 82    
Maximum Humidity 94    
Minimum Humidity 48    
Precipitation  
Precipitation 0.00 in 0.10 in 1.32 in (2011)
Month to date precipitation 0.53  
Year to date precipitation 28.63  
Snow  
Snow 0.00 in - - ()
Month to date snowfall  
Since 1 July snowfall  
Since 1 September snowfall  
Snow Depth -    
Sea Level Pressure  
Sea Level Pressure 29.96 in    
Wind  
Wind Speed 1 mph (SW)    
Max Wind Speed 10 mph    
Max Gust Speed -    
Visibility 9 miles    
Events Rain , Thunderstorm    
T = Trace of Precipitation, MM = Missing Value Source: NWS Daily Summary

Daily Weather History Graph

Daily Weather History Graph

Search for Another Location

Airport:

Trip Planner

Search our weather history database for the weather conditions in past years. The results will help you decide how hot, cold, wet, or windy it might be!

Date:

Astronomy

Sep. 05, 2012 Rise Set
Actual Time 6:55 AM EDT 7:44 PM EDT
Civil Twilight 6:28 AM EDT 8:10 PM EDT
Nautical Twilight 5:57 AM EDT 8:42 PM EDT
Astronomical Twilight 5:24 AM EDT 9:14 PM EDT
Moon 10:19 PM EDT (9/5) 11:51 AM EDT (9/5)
Length of Visible Light 13h 42m
Length of Day
12h 48m
Waning Gibbous, 76% of the Moon is Illuminated
Sep 5
Waning Gibbous
Sep 8
Last Quarter
Sep 15
New
Sep 22
First Quarter
Sep 29
Full

Hourly Weather History & Observations

Time (EDT) Temp. Heat Index Dew Point Humidity Pressure Visibility Wind Dir Wind Speed Gust Speed Precip Events Conditions
12:15 AM 73.4 °F - 66.2 °F 78% 29.98 in 10.0 mi Calm Calm - N/A   Overcast
12:35 AM 73.4 °F - 66.2 °F 78% 29.98 in 10.0 mi Calm Calm - N/A Rain Light Rain
12:55 AM 71.6 °F - 66.2 °F 83% 29.98 in 10.0 mi Calm Calm - N/A   Overcast
1:15 AM 71.6 °F - 66.2 °F 83% 29.97 in 10.0 mi Calm Calm - N/A   Overcast
1:35 AM 71.6 °F - 66.2 °F 83% 29.97 in 10.0 mi Calm Calm - N/A   Overcast
1:55 AM 71.6 °F - 68.0 °F 88% 29.96 in 10.0 mi Calm Calm - N/A   Overcast
2:15 AM 71.6 °F - 66.2 °F 83% 29.96 in 10.0 mi Calm Calm - N/A   Overcast
2:35 AM 71.6 °F - 66.2 °F 83% 29.96 in 10.0 mi Calm Calm - N/A   Overcast
2:55 AM 71.6 °F - 68.0 °F 88% 29.97 in 10.0 mi Calm Calm - N/A   Overcast
3:15 AM 71.6 °F - 68.0 °F 88% 29.96 in 10.0 mi Calm Calm - N/A   Overcast
3:35 AM 71.6 °F - 68.0 °F 88% 29.96 in 10.0 mi Calm Calm - N/A   Overcast
3:55 AM 71.6 °F - 68.0 °F 88% 29.96 in 10.0 mi Calm Calm - N/A   Overcast
4:15 AM 71.6 °F - 68.0 °F 88% 29.96 in 10.0 mi Calm Calm - N/A   Overcast
4:35 AM 71.6 °F - 68.0 °F 88% 29.96 in 10.0 mi Calm Calm - N/A   Overcast
4:55 AM 71.6 °F - 68.0 °F 88% 29.96 in 10.0 mi Calm Calm - N/A   Overcast
5:15 AM 71.6 °F - 68.0 °F 88% 29.96 in 10.0 mi Calm Calm - N/A   Overcast
5:35 AM 71.6 °F - 68.0 °F 88% 29.96 in 10.0 mi Calm Calm - N/A   Overcast
5:55 AM 71.6 °F - 68.0 °F 88% 29.97 in 10.0 mi Calm Calm - N/A   Overcast
6:15 AM 71.6 °F - 68.0 °F 88% 29.97 in 10.0 mi Calm Calm - N/A Thunderstorm Overcast
6:35 AM 71.6 °F - 68.0 °F 88% 29.97 in 10.0 mi Calm Calm - N/A   Overcast
6:55 AM 71.6 °F - 68.0 °F 88% 29.98 in 10.0 mi Calm Calm - N/A   Overcast
7:15 AM 71.6 °F - 68.0 °F 88% 29.98 in 10.0 mi Calm Calm - N/A   Overcast
7:35 AM 71.6 °F - 68.0 °F 88% 29.98 in 10.0 mi Calm Calm - N/A   Overcast
7:55 AM 71.6 °F - 68.0 °F 88% 29.98 in 10.0 mi SW 3.5 mph - N/A   Overcast
8:15 AM 71.6 °F - 68.0 °F 88% 29.98 in 10.0 mi SW 3.5 mph - N/A   Overcast
8:35 AM 71.6 °F - 68.0 °F 88% 29.98 in 10.0 mi SSW 3.5 mph - N/A   Overcast
8:55 AM 73.4 °F - 68.0 °F 83% 29.99 in 10.0 mi SW 4.6 mph - N/A   Mostly Cloudy
9:15 AM 73.4 °F - 68.0 °F 83% 29.99 in 10.0 mi Calm Calm - N/A   Overcast
9:35 AM 75.2 °F - 68.0 °F 78% 29.98 in 10.0 mi SSW 5.8 mph - N/A   Mostly Cloudy
9:55 AM 77.0 °F - 68.0 °F 74% 29.99 in 10.0 mi WSW 3.5 mph - N/A   Mostly Cloudy
10:15 AM 77.0 °F - 68.0 °F 74% 29.99 in 10.0 mi SW 4.6 mph - N/A   Overcast
10:35 AM 75.2 °F - 68.0 °F 78% 30.00 in 10.0 mi SW 4.6 mph - N/A   Overcast
10:55 AM 77.0 °F - 68.0 °F 74% 30.00 in 10.0 mi SW 5.8 mph - N/A   Overcast
11:15 AM 77.0 °F - 68.0 °F 74% 30.00 in 10.0 mi West 5.8 mph - N/A   Overcast
11:35 AM 77.0 °F - 68.0 °F 74% 29.99 in 10.0 mi Calm Calm - N/A   Mostly Cloudy
11:55 AM 78.8 °F - 66.2 °F 65% 29.99 in 10.0 mi SW 4.6 mph - N/A   Scattered Clouds
12:15 PM 78.8 °F - 66.2 °F 65% 29.99 in 10.0 mi WSW 5.8 mph - N/A   Overcast
12:35 PM 80.6 °F 83.2 °F 68.0 °F 65% 29.98 in 10.0 mi South 3.5 mph - N/A   Scattered Clouds
12:55 PM 78.8 °F - 68.0 °F 69% 29.98 in 10.0 mi WNW 4.6 mph - N/A Rain Light Rain
1:15 PM 80.6 °F 83.2 °F 68.0 °F 65% 29.96 in 10.0 mi Calm Calm - N/A   Mostly Cloudy
1:35 PM 82.4 °F 83.9 °F 64.4 °F 54% 29.95 in 10.0 mi SSW 5.8 mph - N/A   Clear
1:55 PM 84.2 °F 85.6 °F 64.4 °F 51% 29.94 in 10.0 mi SW 3.5 mph - N/A   Clear
2:15 PM 84.2 °F 85.6 °F 64.4 °F 51% 29.94 in 10.0 mi Calm Calm - N/A   Clear
2:35 PM 86.0 °F 87.3 °F 64.4 °F 48% 29.93 in 10.0 mi SSW 5.8 mph - N/A   Mostly Cloudy
2:55 PM 84.2 °F 85.6 °F 64.4 °F 51% 29.93 in 10.0 mi SW 4.6 mph - N/A   Overcast
3:15 PM 77.0 °F - 69.8 °F 78% 29.94 in 4.0 mi NNE 10.4 mph - N/A Rain Light Rain
3:35 PM 77.0 °F - 68.0 °F 74% 29.93 in 10.0 mi Calm Calm - N/A   Overcast
3:55 PM 75.2 °F - 69.8 °F 83% 29.93 in 5.0 mi SSW 8.1 mph - N/A Rain , Thunderstorm Rain
4:15 PM 77.0 °F - 69.8 °F 78% 29.92 in 7.0 mi Calm Calm - N/A Rain , Thunderstorm Light Thunderstorms and Rain
4:35 PM 75.2 °F - 69.8 °F 83% 29.93 in 10.0 mi SSW 6.9 mph - N/A Thunderstorm Thunderstorm
4:55 PM 73.4 °F - 69.8 °F 88% 29.93 in 7.0 mi South 3.5 mph - N/A Thunderstorm Overcast
5:15 PM 73.4 °F - 68.0 °F 83% 29.95 in 7.0 mi Calm Calm - N/A Rain Light Rain
5:35 PM 73.4 °F - 69.8 °F 88% 29.95 in 10.0 mi Calm Calm - N/A   Overcast
5:55 PM 73.4 °F - 69.8 °F 88% 29.94 in 10.0 mi Calm Calm - N/A Thunderstorm Overcast
6:15 PM 73.4 °F - 69.8 °F 88% 29.94 in 10.0 mi SSW 4.6 mph - N/A   Mostly Cloudy
6:35 PM 75.2 °F - 68.0 °F 78% 29.93 in 10.0 mi WNW 5.8 mph - N/A   Scattered Clouds
6:55 PM 73.4 °F - 68.0 °F 83% 29.94 in 10.0 mi NW 3.5 mph - N/A   Mostly Cloudy
7:15 PM 73.4 °F - 68.0 °F 83% 29.94 in 10.0 mi Calm Calm - N/A   Overcast
7:35 PM 73.4 °F - 69.8 °F 88% 29.96 in 10.0 mi Calm Calm - N/A Rain Light Rain
7:55 PM 71.6 °F - 68.0 °F 88% 29.96 in 10.0 mi Calm Calm - N/A   Light Drizzle
8:15 PM 71.6 °F - 69.8 °F 94% 29.97 in 7.0 mi Calm Calm - N/A   Mostly Cloudy
8:35 PM 71.6 °F - 69.8 °F 94% 29.96 in 7.0 mi Calm Calm - N/A   Overcast
8:55 PM 71.6 °F - 69.8 °F 94% 29.97 in 7.0 mi Calm Calm - N/A   Overcast
9:15 PM 71.6 °F - 68.0 °F 88% 29.97 in 7.0 mi Calm Calm - N/A   Mostly Cloudy
9:35 PM 71.6 °F - 68.0 °F 88% 29.97 in 10.0 mi Calm Calm - N/A   Mostly Cloudy
9:55 PM 71.6 °F - 68.0 °F 88% 29.96 in 7.0 mi Calm Calm - N/A   Scattered Clouds
10:15 PM 71.6 °F - 68.0 °F 88% 29.97 in 7.0 mi Calm Calm - N/A   Clear
10:35 PM 69.8 °F - 68.0 °F 94% 29.97 in 7.0 mi Calm Calm - N/A   Clear
10:55 PM 69.8 °F - 68.0 °F 94% 29.97 in 5.0 mi Calm Calm - N/A Thunderstorm Scattered Clouds
11:15 PM 69.8 °F - 68.0 °F 94% 29.98 in 4.0 mi Calm Calm - N/A   Mostly Cloudy
11:35 PM 69.8 °F - 68.0 °F 94% 29.97 in 4.0 mi Calm Calm - N/A Rain Light Rain
11:55 PM 69.8 °F - 68.0 °F 94% 29.97 in 3.0 mi Calm Calm - N/A   Overcast